BEIDOU 5

Last updated on Jan. 16, 2021, 6:28 a.m. UTC

1 36828U 10036A   21015.51940436 -.00000085  00000-0  00000-0 0  9992
2 36828  54.1704 181.0056 0101219 233.2314   4.4504  1.00249583 38373
UTC
Height (km)
Latitude
Longitude
Inclination
Orbital Period
UTC large
Height (km)
Speed (km/s)
/
Latitude / Longitude
Inclination (degrees)
Orbital Period (minutes)
Azimuth
Elevation
Range (km)
Doppler Factor
iOS Compass Heading
iOS Angle

Next 30 passes for location: Hong Kong

Rise time Rise Azimuth (degrees) Set time Set Azimuth (degrees) Duration Max altitude (degrees)

No matching passes for this satellites